FENGYUN 1C DEB

Satellite information

Favourite Embed

Satellite Type and Status

DEBRISIN ORBIT

Key statistics

Satellite FENGYUN 1C DEB at a glance.

Uptime

9618

Days in orbit

Revolutions

≈ 14.0

Per day

Orbit

SSO

Sun Synchronous Orbit

Inclination

98.6

Latest

Satellite identification and parameters

Extended collection of information and parameters for FENGYUN 1C DEB.

Object identification

Identified? True

Debris? True

Object name: FENGYUN 1C DEB

International designator: 1999-025SR

Object number (NORAD): 30136

Object ID (CCSDS): 30136

Country: PEOPLES REPUBLIC OF CHINA (PRC)

Current information (Y/N): Y

RCS size: SMALL

Orbital parameters

Period: 103.213 minutes

Inclination: 98.5605 deg

SMA: 7288.681 km

Apoapsis: 1004.475 km

Periapsis: 816.616 km

RAAN: 149.9741 deg

Eccentricy: 0.01288706

Argument of periapsis: 338.3185 deg

Mean anomaly: 151.6646 deg

Mean motion: 13.95177194 rev/day

Mean motion (dot): 0.00000737 rev/day2

B* drag term: 0.00053701433 1/REarth

Two-line elements (TLE)

Creation date: Sept. 7, 2025, 9:49 a.m.

Reference frame: TEME

Reference center: EARTH

Epoch: Sept. 7, 2025, 5:40 a.m. UTC

TLE line 0: 0 FENGYUN 1C DEB

TLE line 1: 1 30136U 99025SR 25250.23613145 .00000737 00000-0 53701-3 0 9993

TLE line 2: 2 30136 98.5605 149.9741 0128871 338.3185 151.6646 13.95177194947456

Live tracking on map

Real-time ground track for satellite FENGYUN 1C DEB.

In-orbit conjunctions

A list of the most updated potential collisions computed for object FENGYUN 1C DEB.

Target Orbit TCA Probability of collision Miss distance Type
SL-8 R/B LEO 2024-11-30 02:23:12 0.0001321376 644.0 (m) ROCKET BODY

Associated space launch

Chinese polar orbiting meteorological satellite

FENGYUN 1C DEB was lifted into orbit during the mission ‘Long March 4B | Feng Yun 1C’, on board a Long March 4B space rocket.

The launch took place on May 10, 1999, 1:33 a.m. from Launch Complex 7.

For more information about the launch, click the button.

Launch to space Long March 4B | Feng Yun 1C
Long March 4B | Feng Yun 1C

Agency: N/A

Status: Launch Successful

Launch date: May 10, 1999, 1:33 a.m. UTC

Rocket: Long March 4B

Launch pad: Launch Complex 7

Location: Taiyuan Satellite Launch Center, People's Republic of China

...

Latest news about this satellite

There are no fresh news available about this satellite. Check back as we update our databases every day.


Newsletter sign-up

Weekly statistics, charts and insights to help you stay on top of the space industry.